FW9474 Weather Reports


time (UTC)temp
C
wind
direction
speed
KPH
gust
KPH
rain 1hr
cm
rain 24hr
cm
rain mn
cm
humidity
%
barometer
mb
20260505211530 25 199 8.0 20.9 0.00 0.00 0.00 39 1013.7
20260505210031 25 243 9.7 25.7 0.00 0.00 0.00 41 1013.9
20260505204530 25 228 8.0 19.3 0.00 0.00 0.00 42 1014.0
20260505203027 25 200 8.0 19.3 0.00 0.00 0.00 43 1014.2
20260505201530 24 250 9.7 19.3 0.00 0.00 0.00 43 1014.4
20260505200035 24 237 11.3 25.7 0.00 0.00 0.00 41 1014.7
20260505194530 24 258 8.0 19.3 0.00 0.00 0.00 43 1014.6
20260505193031 24 258 16.1 25.7 0.00 0.00 0.00 40 1015.2
20260505191530 24 73 4.8 30.6 0.00 0.00 0.00 41 1015.3
20260505190031 24 174 9.7 24.1 0.00 0.00 0.00 41 1015.6
20260505184530 24 241 11.3 29.0 0.00 0.00 0.00 41 1015.7
20260505183042 24 327 3.2 17.7 0.00 0.00 0.00 40 1015.7
20260505181531 23 202 8.0 20.9 0.00 0.00 0.00 43 1015.9
20260505180030 23 227 4.8 22.5 0.00 0.00 0.00 43 1016.0
20260505174528 23 219 11.3 27.4 0.00 0.00 0.00 44 1016.5
20260505173035 23 206 14.5 32.2 0.00 0.00 0.00 40 1016.7
20260505171534 23 255 12.9 25.7 0.00 0.00 0.00 40 1016.8
20260505170034 23 240 14.5 29.0 0.00 0.00 0.00 40 1016.7
20260505164530 23 223 14.5 33.8 0.00 0.00 0.00 42 1016.7
20260505163029 22 182 6.4 17.7 0.00 0.00 0.00 51 1016.7
20260505161529 21 258 9.7 22.5 0.00 0.00 0.00 52 1016.9
20260505153030 20 109 3.2 9.7 0.00 0.00 0.00 59 1017.1
20260505151528 20 237 1.6 9.7 0.00 0.00 0.00 59 1017.2
20260505124531 13 40 1.6 6.4 0.00 0.00 0.00 78 1016.6
20260505123031 12 27 3.2 6.4 0.00 0.00 0.00 82 1016.7
20260505121528 11 0 0.0 0.0 0.00 0.00 0.00 93 1016.6
20260505120038 9 0 0.0 0.0 0.00 0.00 0.00 94 1016.4
20260505114527 8 0 0.0 0.0 0.00 0.00 0.00 95 1016.3
20260505113032 7 0 0.0 0.0 0.00 0.00 0.00 96 1016.2
20260505111530 7 0 0.0 0.0 0.00 0.00 0.00 96 1016.1
20260505101536 7 0 0.0 0.0 0.00 0.00 0.00 95 1015.8
20260505100030 7 0 0.0 0.0 0.00 0.00 0.00 96 1015.8
20260505094531 7 0 0.0 0.0 0.00 0.00 0.00 95 1015.7
20260505093031 7 0 0.0 0.0 0.00 0.00 0.00 95 1015.6
20260505091530 7 0 0.0 0.0 0.00 0.00 0.00 94 1015.8
20260505090028 7 0 0.0 0.0 0.00 0.00 0.00 95 1015.6
20260505084540 7 0 0.0 0.0 0.00 0.00 0.00 94 1015.5
20260505083030 7 0 0.0 1.6 0.00 0.00 0.00 94 1015.4
20260505081529 7 0 0.0 0.0 0.00 0.00 0.00 94 1015.3
20260505080030 7 0 0.0 1.6 0.00 0.00 0.00 94 1015.3
20260505074531 8 0 0.0 0.0 0.00 0.00 0.00 94 1015.3
20260505073039 8 0 0.0 0.0 0.00 0.00 0.00 94 1015.3
20260505071530 8 0 0.0 0.0 0.00 0.00 0.00 93 1015.3
20260505070038 8 0 0.0 0.0 0.00 0.00 0.00 93 1015.5
20260505064530 8 0 0.0 0.0 0.00 0.00 0.00 93 1015.5
20260505063028 9 0 0.0 0.0 0.00 0.00 0.00 92 1015.6
20260505061536 9 0 0.0 0.0 0.00 0.00 0.00 92 1015.8
20260505060030 9 0 0.0 0.0 0.00 0.00 0.00 91 1015.7
20260505054542 10 0 0.0 0.0 0.00 0.00 0.00 90 1015.7
20260505053030 10 0 0.0 0.0 0.00 0.00 0.00 90 1015.8
20260505051531 10 0 0.0 0.0 0.00 0.00 0.00 89 1015.8
20260505041544 11 0 0.0 4.8 0.00 0.00 0.00 88 1015.9
20260505040038 11 0 0.0 0.0 0.00 0.00 0.00 87 1015.8
20260505034531 11 0 0.0 0.0 0.00 0.00 0.00 87 1015.9
20260505033028 11 0 0.0 0.0 0.00 0.00 0.00 86 1016.0
20260505031538 12 0 0.0 0.0 0.00 0.00 0.00 85 1016.0
20260505030029 12 0 0.0 0.0 0.00 0.00 0.00 84 1015.9
20260505024530 12 0 0.0 0.0 0.00 0.00 0.00 83 1015.9
20260505023030 13 0 0.0 0.0 0.00 0.00 0.00 82 1015.9
20260505021533 13 0 0.0 0.0 0.00 0.00 0.00 80 1015.7
20260505020028 14 0 0.0 0.0 0.00 0.00 0.00 78 1015.4
20260505014534 15 0 0.0 0.0 0.00 0.00 0.00 75 1015.4
20260505013031 15 0 0.0 0.0 0.00 0.00 0.00 75 1015.2
20260505011530 16 0 0.0 0.0 0.00 0.00 0.00 72 1015.2
20260505010028 16 0 0.0 0.0 0.00 0.00 0.00 71 1015.1
20260505004533 16 0 0.0 0.0 0.00 0.00 0.00 69 1014.8
20260505003029 17 0 0.0 0.0 0.00 0.00 0.00 67 1014.9
20260505001529 18 0 0.0 0.0 0.00 0.00 0.00 64 1014.8
20260505000038 19 0 0.0 0.0 0.00 0.00 0.00 57 1014.9
20260504234534 20 0 0.0 0.0 0.00 0.00 0.00 53 1014.7
20260504233033 21 0 0.0 6.4 0.00 0.00 0.00 50 1014.6
20260504231532 22 186 1.6 8.0 0.00 0.00 0.00 47 1014.5
20260504230030 22 280 1.6 9.7 0.00 0.00 0.00 43 1014.5
20260504224531 23 213 4.8 12.9 0.00 0.00 0.00 43 1014.3
20260504223052 23 212 6.4 12.9 0.00 0.00 0.00 42 1014.4
20260504221528 23 211 4.8 16.1 0.00 0.00 0.00 42 1014.5
20260504220028 23 223 9.7 17.7 0.00 0.00 0.00 41 1014.5
20260504214532 23 194 8.0 17.7 0.00 0.00 0.00 42 1014.4
20260504213040 23 259 6.4 17.7 0.00 0.00 0.00 41 1014.5